Regional Weather Roundup
Issued by NWS

Home | Current Version | Previous Version | Graphics & Text | Print | Product List | Glossary On
Versions: 1 2 3 4 5 6 7 8 9 10 11 12 13 14 15 16 17 18 19 20 21 22 23 24 25 26 27 28 29 30 31 32 33 34 35 36 37 38 39 40 41 42 43 44 45 46 47 48 49 50
000
ASUS43 KMPX 301901
RWRMN
WEATHER ROUNDUP FOR MINNESOTA
NATIONAL WEATHER SERVICE TWIN CITIES/CHANHASSEN MN
200 PM CDT SAT AUG 30 2014


NOTE: "FAIR" INDICATES FEW OR NO CLOUDS BELOW 12,000 FEET WITH NO
SIGNIFICANT WEATHER AND/OR OBSTRUCTIONS TO VISIBILITY. N/A MEANS
CURRENT SKY AND/OR WEATHER CONDITIONS ARE NOT AVAILABLE.

MNZ060>063-068>070-302000-
   Twin Cities Metro

CITY           SKY/WX    TMP DP  RH WIND       PRES   REMARKS
TWIN CITIES    PTSUNNY   75  62  64 N7        29.86S
ST PAUL        PTSUNNY   72  62  71 N9        29.86S
CRYSTAL        CLOUDY    75  61  61 NE7       29.85S
BLAINE         PTSUNNY   73  64  73 N6        29.87R
LAKEVILLE      PTSUNNY   73  63  68 N3        29.86S
EDEN PRAIRIE   PTSUNNY   76  63  64 CALM      29.85S
SOUTH ST PAUL  PTSUNNY   73  61  66 NE7       29.86S
LAKE ELMO      CLOUDY    70  61  73 NW7       29.88R
$$
MNZ001>005-007-008-013>017-022>024-027-028-302000-
   Northwest Minnesota

CITY           SKY/WX    TMP DP  RH WIND       PRES   REMARKS
BEMIDJI        CLOUDY    63  56  79 NE5       29.90S
HALLOCK        SUNNY     70  52  52 SE5       29.89F
ROSEAU         SUNNY     70  54  56 E5        29.91F
WARROAD        SUNNY     64  55  72 NE8       29.93S
THIEF RVR FALL MOSUNNY   68  52  56 N3        29.90F
CROOKSTON      SUNNY     70  54  56 CALM      29.90F
FOSSTON        SUNNY     70  59  68 CALM      29.90F
DETROIT LAKES  CLOUDY    64  59  82 NE5       29.90F
MOORHEAD       CLOUDY    66  63  88 CALM      29.89F
PARK RAPIDS    CLOUDY    63  57  81 NE3       29.90S
MAHNOMEN       FAIR      65  57  74 E7        29.89F
$$
MNZ006-009>011-018-025>026-302000-
   North Central Minnesota

CITY           SKY/WX    TMP DP  RH WIND       PRES   REMARKS
BAUDETTE       SUNNY     68  51  54 E5        29.90F
FLAG ISLAND    PTSUNNY   63  52  67 CALM      29.91F
INTL FALLS     MOSUNNY   70  53  54 N7        29.90S
WASKISH        CLOUDY    66  55  68 NE5       29.90S
BIG FORK       MOSUNNY   64  55  72 NE5       29.91R
LONGVILLE      CLOUDY    63  59  88 CALM      29.89F
GRAND RAPIDS   CLOUDY    63  57  82 NE5       29.90S
CRANE LAKE     CLOUDY    63  55  77 CALM      29.92S
ORR            CLOUDY    64  52  63 CALM      29.88F
COOK           CLOUDY    63  55  77 NE7       29.91S
WALKER         CLOUDY    61  57  86 CALM      29.90S
$$
MNZ012-019>021-037-302000-
   Northeast Minnesota

CITY           SKY/WX    TMP DP  RH WIND       PRES   REMARKS
DULUTH         CLOUDY    66  60  81 E8        29.88R
ELY            CLOUDY    61  55  82 NE6       29.91R
HIBBING        CLOUDY    64  57  78 NE6       29.90S
EVELETH        CLOUDY    63  57  82 CALM      29.91S
DULUTH HARBOR  CLOUDY    64  63  94 NE5       29.88R
TWO HARBORS    DRIZZLE   63  57  82 E7        29.87R
SILVER BAY     PTSUNNY   63  63 100 E3        29.87R
GRAND MARAIS     N/A     67  58  72 E6        29.86S
G MARAIS ARPRT PTSUNNY   61  54  77 N8        29.90S
$$
MNZ029>031-032-039>041-046>048-054>057-064-302000-
   West Central Minnesota

CITY           SKY/WX    TMP DP  RH WIND       PRES   REMARKS
FERGUS FALLS   CLOUDY    64  61  88 W5        29.89S
WHEATON        CLOUDY    61  55  82 CALM      29.91S
MORRIS         SUNNY     66  61  82 NW6       29.89S
ALEXANDRIA     CLOUDY    67  60  78 NE3       29.90S
ELBOW LAKE     CLOUDY    63  60  88 W3        29.89S
WADENA         CLOUDY    63  59  88 N3        29.89F
GLENWOOD       MOSUNNY   66  63  88 N5        29.90S
APPLETON       CLOUDY    68  61  77 W5        29.89S
BENSON         CLOUDY    68  63  83 N5        29.89S
ORTONVILLE     CLOUDY    64  57  77 N3        29.90S
MADISON        SUNNY     70  63  78 W6        29.90S
WILLMAR        PTSUNNY   70  63  78 W7        29.90S
$$
MNZ033>034-036-042>043-049>051-058-059-302000-
   Central Minnesota

CITY           SKY/WX    TMP DP  RH WIND       PRES   REMARKS
ST CLOUD       CLOUDY    73  64  73 CALM      29.87S
SAUK CENTRE    CLOUDY    66  63  88 CALM      29.89F
PAYNESVILLE    HVY RAIN  66  63  88 NW3       29.89S
AITKIN         CLOUDY    70  63  78 N5        29.88R
PINE RIVER     CLOUDY    63  61  94 CALM      29.93S
BRAINERD       CLOUDY    64  61  90 N3        29.89S
STAPLES        CLOUDY    61  59  94 N3        29.90S
LONG PRAIRIE   CLOUDY    63  61  94 N3        29.90S
LITTLE FALLS   PTSUNNY   66  63  88 CALM      29.88S
LITCHFIELD     MOSUNNY   73  68  83 NW8       29.88S
BUFFALO        MOSUNNY   74  60  63 NE3       29.87S
MAPLE LAKE     MOSUNNY   75  65  71 CALM      29.87F
$$
MNZ037-044-045-052-053-302000-
   East Central Minnesota

CITY           SKY/WX    TMP DP  RH WIND       PRES   REMARKS
PRINCETON      MOSUNNY   73  63  68 NE5       29.87S
MORA           CLOUDY    70  59  68 E5        29.89S
CAMBRIDGE      PTSUNNY   73  61  64 CALM      29.86R
RUSH CITY      CLOUDY    70  61  73 CALM      29.87R
MOOSE LAKE     CLOUDY    70  61  73 CALM      29.86R
HINCKLEY       CLOUDY    72  61  68 NE6       29.86S
CLOQUET        CLOUDY    64  61  88 E5        29.88R
MCGREGOR       CLOUDY    68  61  77 N5        29.89R
$$
MNZ071>073-080-081-089-090-097-098-302000-
   Southwest Minnesota

CITY           SKY/WX    TMP DP  RH WIND       PRES   REMARKS
MONTEVIDEO     CLOUDY    68  68 100 NW6       29.91R
GRANITE FALLS  CLOUDY    66  63  88 W6        29.91S
CANBY          CLOUDY    66  60  81 NW3       29.91F
MARSHALL       CLOUDY    66  59  77 NW7       29.91R
REDWOOD FALLS  CLOUDY    70  63  78 W6        29.89S
OLIVIA         CLOUDY    70  63  78 W7        29.89S
PIPESTONE      CLOUDY    64  61  88 W3        29.93S
WINDOM         CLOUDY    70  63  78 W8        29.92S
WORTHINGTON    MOSUNNY   70  61  73 NW3       29.93S
JACKSON        CLOUDY    72  63  73 W6        29.92S
TRACY          CLOUDY    67  63  86 CALM      29.92S
SLAYTON        CLOUDY    68  62  81 CALM      29.94S
$$
MNZ065>067-074>077-082>085-091>093-302000-
   South Central Minnesota

CITY           SKY/WX    TMP DP  RH WIND       PRES   REMARKS
MANKATO        CLOUDY    72  63  73 NW8       29.88S
NEW ULM        MOSUNNY   70  66  88 W8        29.89S
ST JAMES       PTSUNNY   73  63  68 W8        29.90S
FAIRMONT       CLOUDY    70  61  73 W7        29.90S
GLENCOE        CLOUDY    75  64  70 W5        29.86S
FARIBAULT      PTSUNNY   79  61  53 NW3       29.87R
OWATONNA       MOSUNNY   75  63  64 NW5       29.87R
WASECA         PTSUNNY   72  61  68 W8        29.90R
ALBERT LEA     MOSUNNY   75  66  73 W8        29.88R
$$
MNZ078>079-086>088-094>096-302000-
   Southeast Minnesota

CITY           SKY/WX    TMP DP  RH WIND       PRES   REMARKS
ROCHESTER      CLOUDY    74  64  71 NW8       29.88S
RED WING       CLOUDY    72  63  73 NW7       29.84S
STANTON        PTSUNNY   75  63  66 NW8       29.85R
DODGE CENTER   MOSUNNY   75  64  69 N9        29.87S
WINONA         CLOUDY    70  64  83 NW6       29.85R
AUSTIN         MOSUNNY   75  64  69 W5        29.87R
PRESTON        PTSUNNY   74  69  82 NW6       29.87S
$$
ABBREVIATIONS USED IN REMARKS
   TC - TEMPERATURES IN CELSIUS
  WCI - WIND CHILL INDEX
   HX - HEAT INDEX
  VSB - VISIBILITY
$$



USA.gov is the U.S. government's official web portal to all federal, state and local government web resources and services.